Regional Weather Roundup
Issued by NWS San Diego, CA

Home | Current Version | Previous Version | Text Only | Print | Product List | Glossary On
Versions: 1 2 3 4 5 6 7 8 9 10 11 12 13 14 15 16 17 18 19 20 21 22 23 24 25 26 27 28 29 30 31 32 33 34 35 36 37 38 39 40 41 42 43 44 45 46 47 48 49 50
000
ASUS46 KSGX 260111
RWRSGX

SAN DIEGO HOURLY WEATHER ROUNDUP
NATIONAL WEATHER SERVICE SAN DIEGO CA
600 PM PDT SAT MAR 25 2017

NOTE: "FAIR" INDICATES FEW OR NO CLOUDS BELOW 12,000 FEET WITH NO
SIGNIFICANT WEATHER AND/OR OBSTRUCTIONS TO VISIBILITY.

CAZ042-043-060-061-PZZ750-775-260200-

GREATER SAN DIEGO AREA

CITY           SKY/WX    TMP DP  RH WIND       PRES   REMARKS
SAN DIEGO AP   MOSUNNY   65  51  60 W10       30.05S
NATIONAL CITY    N/A     64  56  76 W3        30.04S
CHULA VISTA      N/A     64  57  77 W3        29.96S
IMPERIAL BEACH SUNNY     63  53  70 SW10      30.04F
BROWN FIELD    MOSUNNY   63  52  67 NW9       30.03S
MIRAMAR MCAS   MOSUNNY   66  52  60 W9        30.03S
MONTGOMERY FLD PTSUNNY   62  52  69 SW12      30.03S

$$

NORTH SAN DIEGO COUNTY

CITY           SKY/WX    TMP DP  RH WIND       PRES   REMARKS
CAMP PENDLETON PTSUNNY   62  56  80 W8        30.03R
OCEANSIDE AP   MOSUNNY   63  57  81 SW9       30.02S
OCEANSIDE HBR    N/A     62  57  84 NW10      30.05S
VISTA            N/A     63  56  76 W3        30.01R
CARLSBAD       MOSUNNY   62  55  77 SW9       30.02S
DEL MAR          N/A     62  57  82 W1        30.05S
LA JOLLA SCRIP   N/A     62  57  83 SW3       30.03S
FALLBROOK        N/A     62  57  83 S8        30.01R
ESCONDIDO        N/A     64  53  68 W10       30.04R
SAN MARCOS       N/A     62  53  73 W7        30.04S
POWAY            N/A     66  54  65 CALM      30.05R

$$

EAST SAN DIEGO COUNTY

CITY           SKY/WX    TMP DP  RH WIND       PRES   REMARKS
RAMONA         MOSUNNY   60  53  77 W12       30.02S
SANTEE LAKES     N/A     65  54  66 CALM      30.01F
LA MESA          N/A     64  53  68 W7        29.96F
JAMUL            N/A     63  54  73 CALM      30.03F
DESCANSO N       N/A     52  47  81 W6        29.99R
CAMPO            N/A     58  48  69 NW9       29.99R

$$

ORANGE COUNTY AND THE LOS ANGELES BASIN

CITY           SKY/WX    TMP DP  RH WIND       PRES   REMARKS
JOHN WAYNE AP  PTSUNNY   63  55  75 W7        30.03S
LAGUNA BEACH     N/A     65  59  82 CALM      29.98S
LAKE FOREST FR   N/A     62  50  66 W3        29.93R
HUNTINGTON BCH   N/A     63  58  83 SW10      30.05S
LOS ALAMITOS   FAIR      63  56  79 SW13      30.02F
FULLERTON      PTSUNNY   64  56  75 SW9       30.01S
LONG BEACH     PTSUNNY   64  52  64 NW12      30.02S
L.A. AP        PTSUNNY   61  54  77 W12G18    30.03S
L.A. DOWNTOWN  CLOUDY    64  53  67 W5        30.02S

$$

THE INLAND EMPIRE

CITY           SKY/WX    TMP DP  RH WIND       PRES   REMARKS
CORONA         MOSUNNY   65  52  62 W10G18    30.01S
CHINO          PTSUNNY   65  53  65 W12       30.02S
ONTARIO        PTSUNNY   63  51  65 SW15      30.01R
SAN BERNARDINO PTSUNNY   66  48  52 W13       30.00S
RIVERSIDE AP   SUNNY     65  52  62 W15G22    30.00S
MORENO VALLEY    N/A     66  54  66 NW7       28.12S
MARCH ARB      MOSUNNY   64  48  57 NW10      29.99S
HORSETHIEF CYN   N/A     65  44  46 NW6       30.01S
PERRIS           N/A     65  50  57 W7        30.00S
HEMET EAST       N/A     62  48  59 SW5       30.05S
FRENCH VALLEY  FAIR      63  52  67 S13       30.01R
TEMECULA         N/A     64  55  72 SW6       30.05R

$$

SAN BERNARDINO AND RIVERSIDE COUNTY MOUNTAINS

CITY           SKY/WX    TMP DP  RH WIND       PRES   REMARKS
BIG BEAR AP    PTSUNNY   43  30  61 SW6       30.06S
PINE COVE        N/A     43  39  85 N2        30.00R

$$

SOUTHERN DESERT INCLUDING THE COACHELLA VALLEY

CITY           SKY/WX    TMP DP  RH WIND       PRES   REMARKS
PALM SPRINGS   MOSUNNY   77  38  24 N8G26     29.89S
PALM DESERT      N/A     78  40  25 N5        29.78R
THERMAL        SUNNY     78  38  23 NW24      29.84S
BLYTHE         MOSUNNY   82  26  13 SW12      29.83S
IMPERIAL AP    MOSUNNY   75  44  33 W16       29.87S
EL CENTRO NAS  MOSUNNY   78  36  21 W17       29.89F
YUMA AZ        MOSUNNY   77  39  25 W16G25    29.86
MEXICALI       MOSUNNY   77  37  24 W17       29.88S

$$

UPPER DESERT

CITY           SKY/WX    TMP DP  RH WIND       PRES   REMARKS
VICTORVILLE AP SUNNY     63  37  39 W15G22    30.00R
HESPERIA         N/A     59  45  60 W12       30.09R
PALMDALE       MOSUNNY   59  40  49 W26G35    30.01S
LANCASTER      SUNNY     61  39  44 W22G31    30.01S
EDWARDS AFB    MOSUNNY   63  32  31 W20G26    29.96S
DAGGETT        SUNNY     69  31  24 W18       29.93S
29 PALMS N     MOSUNNY   71  25  17 NW18G24   29.98S
NEEDLES        MOSUNNY   77  41  27 NW9       29.84R

$$

REGIONAL REPORTS

CITY           SKY/WX    TMP DP  RH WIND       PRES   REMARKS
SANTA BARBARA  MOSUNNY   66  52  60 W5        29.99S
SANDBERG       MOSUNNY   49  42  77 N32G38    30.06F
LAS VEGAS NV   MOSUNNY   70  32  24 NW10      29.90F
PHOENIX AZ     PTCLDY    79  24  13 SW16      29.82S
TIJUANA        MOSUNNY   63  50  63 W12       30.05S
ENSENADA NW      N/A     63  32  30 W12       30.01S

$$

OFFSHORE ISLANDS

CITY           SKY/WX    TMP DP  RH WIND       PRES   REMARKS
CATALINA ARPT  CLOUDY    52  52 100 W20       30.04F FOG
SAN NICOLAS IS PTSUNNY  N/A N/A N/A W20G25    30.06S

$$

MARINE AND OFFSHORE BUOY REPORTS

STATION/POSITION SKY/WX   TEMP    WIND        PRES    VSBY  SWELL
                          AIR SEA DIR/SP/G                  HT/PER/DIR
                          (F)     (DEG/KT/KT) (MB)    (MI)  (FT/S/D)
TANNER BANKS               58 60  310/ 17/ 19 1018.1S         5/310/12
S CLEMENTE BASIN           59 62  180/  2/  2 1017.2F         5/280/10
SAN NICOLAS IS.               57                N/A           5/290/17
SO. S. ROSA ISLA           57 57  310/ 21/ 27 1017.7F         5/300/16
W. S. BARBARA CH           57 57  330/ 23/ 29 1017.5F         7/290/10
M. S. BARBARA CH                  270/ 17/ 21 1016.6          3/270/10
S. MONICA BASIN            59 60  280/  6/  8 1016.9F         3/270/10
S PEDRO CHANNEL               62                N/A           2/280/11
CMP PENDLETON NS              60                N/A           2/220/13
OCEANSIDE OFFSHR              62                N/A           2/210/14
TORREY PINES OTR              62                N/A           2/280/11
POINT LOMA SOUTH              64                N/A           3/260/13

$$




USA.gov is the U.S. government's official web portal to all federal, state and local government web resources and services.